Weather History for PHMK - April, 2014

Change the Weather History Date:

Wednesday, April 9, 2014

  Actual Average Record
Temperature  
Mean Temperature 70 °F -  
Max Temperature 75 °F 78 °F 84 °F (1981)
Min Temperature 66 °F 65 °F 55 °F (2011)
Cooling Degree Days 6    
Growing Degree Days 20 (Base 50)    
Moisture  
Dew Point 60 °F    
Average Humidity 69    
Maximum Humidity 78    
Minimum Humidity 55    
Precipitation  
Precipitation 0.02 in - - ()
Sea Level Pressure  
Sea Level Pressure 30.09 in    
Wind  
Wind Speed 12 mph (NE)    
Max Wind Speed 20 mph    
Max Gust Speed 29 mph    
Visibility 10 miles    
Events      
Averages and records for this station are not official NWS values.
T = Trace of Precipitation, MM = Missing Value Source: NWS Daily Summary

Daily Weather History Graph

Daily Weather History Graph

Search for Another Location

Airport or City:

Trip Planner

Search our weather history database for the weather conditions in past years. The results will help you decide how hot, cold, wet, or windy it might be!

Date:

Astronomy

Apr. 09, 2014 Rise Set
Actual Time 6:14 AM HST 6:45 PM HST
Civil Twilight 5:51 AM HST 7:08 PM HST
Nautical Twilight 5:25 AM HST 7:34 PM HST
Astronomical Twilight 4:58 AM HST 8:01 PM HST
Moon 2:19 PM HST (4/9) 2:32 AM HST (4/9)
Length of Visible Light 13h 16m
Length of Day
12h 31m
Waxing Gibbous, 73% of the Moon is Illuminated
Apr 9
Waxing Gibbous
Apr 14
Full
Apr 21
Last Quarter
Apr 28
New
May 6
First Quarter

Hourly Weather History & Observations

Time (HST) Temp. Dew Point Humidity Pressure Visibility Wind Dir Wind Speed Gust Speed Precip Events Conditions
12:54 AM 66.9 °F 55.9 °F 68% 30.10 in 10.0 mi ENE 9.2 mph 25.3 mph N/A   Partly Cloudy
1:54 AM 68.0 °F 60.1 °F 76% 30.09 in 10.0 mi NE 12.7 mph 19.6 mph N/A   Partly Cloudy
2:54 AM 68.0 °F 59.0 °F 73% 30.07 in 10.0 mi NE 11.5 mph 21.9 mph N/A   Clear
3:54 AM 68.0 °F 60.1 °F 76% 30.05 in 10.0 mi NE 16.1 mph 24.2 mph N/A   Partly Cloudy
4:54 AM 68.0 °F 57.0 °F 68% 30.07 in 10.0 mi NNE 11.5 mph 25.3 mph N/A   Clear
5:54 AM 68.0 °F 57.9 °F 70% 30.09 in 10.0 mi NE 12.7 mph 20.7 mph N/A   Scattered Clouds
6:54 AM 69.1 °F 60.1 °F 73% 30.11 in 10.0 mi NE 10.4 mph 24.2 mph N/A   Mostly Cloudy
7:54 AM 70.0 °F 59.0 °F 68% 30.11 in 10.0 mi NE 17.3 mph 26.5 mph N/A   Scattered Clouds
8:54 AM 72.0 °F 59.0 °F 64% 30.12 in 10.0 mi NE 13.8 mph 25.3 mph N/A   Mostly Cloudy
9:54 AM 73.0 °F 59.0 °F 61% 30.12 in 10.0 mi NNE 12.7 mph 26.5 mph N/A   Partly Cloudy
10:54 AM 75.0 °F 61.0 °F 62% 30.11 in 10.0 mi NE 16.1 mph 28.8 mph N/A   Scattered Clouds
11:54 AM 73.9 °F 59.0 °F 59% 30.09 in 10.0 mi NE 19.6 mph 28.8 mph N/A   Partly Cloudy
12:54 PM 75.0 °F 60.1 °F 60% 30.07 in 10.0 mi NE 17.3 mph 25.3 mph N/A   Clear
1:54 PM 75.0 °F 57.9 °F 55% 30.05 in 10.0 mi NE 16.1 mph 28.8 mph N/A   Clear
2:54 PM 73.9 °F 57.9 °F 57% 30.04 in 10.0 mi NNE 13.8 mph 25.3 mph N/A   Partly Cloudy
3:54 PM 73.0 °F 59.0 °F 61% 30.04 in 10.0 mi NNE 16.1 mph 23.0 mph N/A   Partly Cloudy
4:54 PM 72.0 °F 57.9 °F 61% 30.06 in 10.0 mi NE 11.5 mph - N/A   Partly Cloudy
5:54 PM 71.1 °F 57.9 °F 63% 30.06 in 10.0 mi ENE 12.7 mph - N/A   Scattered Clouds
6:54 PM 69.1 °F 57.9 °F 68% 30.07 in 10.0 mi NE 6.9 mph - N/A   Partly Cloudy
7:54 PM 70.0 °F 60.1 °F 71% 30.09 in 10.0 mi NE 9.2 mph 17.3 mph N/A   Mostly Cloudy
8:54 PM 69.1 °F 61.0 °F 75% 30.10 in 10.0 mi NE 12.7 mph 19.6 mph 0.01 in   Mostly Cloudy
9:36 PM 69.8 °F 62.6 °F 78% 30.10 in 10.0 mi NE 12.7 mph 18.4 mph N/A   Mostly Cloudy
9:54 PM 70.0 °F 62.1 °F 76% 30.12 in 10.0 mi NE 8.1 mph - N/A   Mostly Cloudy
10:07 PM 69.8 °F 62.6 °F 78% 30.11 in 10.0 mi NE 12.7 mph 21.9 mph N/A   Overcast
10:20 PM 69.8 °F 62.6 °F 78% 30.11 in 10.0 mi NE 9.2 mph 19.6 mph N/A   Overcast
10:47 PM 69.8 °F 62.6 °F 78% 30.11 in 10.0 mi NE 15.0 mph 21.9 mph 0.01 in   Overcast
10:54 PM 70.0 °F 62.1 °F 76% 30.12 in 10.0 mi NE 12.7 mph 23.0 mph 0.01 in   Overcast
11:24 PM 69.8 °F 62.6 °F 78% 30.11 in 10.0 mi NE 9.2 mph - N/A   Overcast
11:54 PM 70.0 °F 63.0 °F 78% 30.11 in 10.0 mi NE 8.1 mph 17.3 mph N/A   Overcast